Flag for France Weather past 2 weeks in Aurillac, France

Now
58 °F

Refreshingly cool.


Feels Like: 56 °F
Forecast: 34 / 70 °F
Wind: 12 mph from Northwest

Location: Aurillac

Current Time: May 6, 2015 at 6:42:02 PM

Latest Report: May 6, 2015 at 6:00 PM


Visibility: 37 mi

Pressure: 30.10 "Hg

Humidity: 46%

Dew point: 37 °F

Location of AurillacLocation

Historic Weather in Aurillac — Graph

°F

Aurillac temperature yesterday

Maximum temperature yesterday: 64 °F (at 12:00 AM)
Minimum temperature yesterday: 51 °F (at 10:00 PM)
Average temperature yesterday: 59 °F

Past Weeks' High & Low Weather Summary

 TemperatureHumidityPressure
High71 °F (Apr 22, 2:00 PM)96% (Apr 27, 1:00 AM)30.27 "Hg (Apr 27, 1:00 AM)
Low31 °F (Apr 29, 7:00 AM)22% (Apr 22, 2:00 PM)29.55 "Hg (Apr 27, 6:00 AM)
Average55 °F72%29.93 "Hg
* Reported Apr 21 5:00 PM — May 6 5:00 PM, Aurillac, Weather by CustomWeather, © 2015

Note: Actual official high and low records may vary slightly from our data, if they occured in-between our weather recording intervals... More about our weather records

Advertising

Aurillac weather history for previous 24 hours

 ConditionsComfort  
Time TempWeatherWind HumidityBarometerVisibility
5:00 PM
Wed, May 6
57 °FScattered clouds.9 mph54%30.10 "Hg31 mi
4:00 PM57 °FScattered clouds.8 mph55%30.10 "Hg31 mi
3:00 PM57 °FPartly sunny.7 mph52%30.10 "Hg31 mi
2:00 PM55 °FPartly sunny.7 mph58%30.11 "Hg31 mi
1:00 PM53 °FPartly sunny.3 mph61%30.13 "Hg31 mi
12:00 PM49 °FOvercast.No wind77%30.14 "Hg12 mi
11:00 AM48 °FOvercast.9 mph75%30.14 "Hg12 mi
10:00 AM46 °FRain. Overcast.9 mph82%30.14 "Hg5 mi
9:00 AM47 °FLow clouds.9 mph91%30.11 "Hg12 mi
8:00 AM45 °FOvercast.3 mph93%30.09 "Hg12 mi
7:00 AM45 °FOvercast.1 mph92%30.06 "Hg19 mi
6:00 AM44 °FOvercast.3 mph93%30.05 "Hg19 mi
4:00 AM42 °FQuite cool.No wind93%30.06 "Hg11 mi
3:00 AM43 °FQuite cool.3 mph93%30.05 "Hg9 mi
2:00 AM44 °FOvercast.2 mph93%30.06 "Hg12 mi
1:00 AM45 °FCool.5 mph91%30.05 "Hg11 mi
12:00 AM46 °FCool.3 mph90%30.04 "Hg11 mi
10:00 PM
Tue, May 5
51 °FCool.2 mph79%30.01 "Hg37 mi
9:00 PM54 °FOvercast.5 mph74%29.98 "Hg37 mi
8:00 PM57 °FOvercast.3 mph63%29.93 "Hg37 mi
7:00 PM60 °FRefreshingly cool.7 mph58%29.92 "Hg34 mi
6:00 PM60 °FOvercast.8 mph58%29.92 "Hg37 mi
Weather by CustomWeather, © 2015

See weather overviewHow to use our weather pages